Theta_e
353 352 350 348 345 343 343 342 343 343 342 342 342 341 341 344 344 344 344 343 341 339 336 336 338 338 340 342 341 340 341 339 338 338 339 339 338 338 339 339 337 334 332 330 329 328 328 328 329 329 329 329 330 331 332 332 331 330 329 330 331 331 331 331 331 331 331 330 330 330 330 330 329 329
352 352 350 350 348 345 344 345 344 344 344 344 342 342 341 342 343 344 345 344 341 339 337 336 338 339 340 341 341 340 339 339 338 338 339 339 338 338 338 338 336 333 332 331 330 329 328 328 328 329 329 330 331 332 332 330 328 326 326 328 328 328 327 328 329 331 331 331 330 330 329 329 329 329
353 353 351 350 349 346 345 346 345 344 344 345 343 342 342 342 343 343 345 344 341 340 338 337 339 341 342 341 339 339 339 339 338 338 338 339 338 338 337 336 333 331 331 331 330 330 329 329 329 330 331 332 332 332 330 327 324 325 326 326 326 326 326 326 328 330 331 331 331 331 331 330 329 329
353 353 352 350 350 348 346 347 346 344 345 344 343 343 342 342 342 343 343 344 343 341 338 338 340 341 342 341 338 338 339 340 339 338 339 339 338 339 338 336 333 332 332 331 331 330 330 331 331 331 332 332 332 329 326 324 324 325 325 326 325 325 325 326 327 329 331 331 331 331 331 330 329 327
354 354 353 352 351 349 347 348 348 346 346 345 343 344 344 343 343 343 343 343 343 343 340 338 339 339 340 341 339 339 339 341 341 340 339 340 340 341 340 339 337 336 336 335 334 332 331 331 331 332 332 331 328 326 324 324 324 325 324 324 325 325 325 327 328 330 330 331 331 330 329 328 326 324
354 353 353 352 351 350 348 348 348 346 346 346 344 344 344 344 343 343 343 343 343 343 341 340 340 339 339 341 341 340 340 341 343 343 341 340 341 341 340 339 339 338 338 338 336 335 332 330 330 330 329 327 325 324 324 324 323 323 323 324 324 325 326 326 328 329 329 329 329 328 327 324 323 321
355 354 354 353 352 352 349 347 348 346 346 347 345 344 344 344 344 343 342 343 343 343 342 342 341 340 339 339 340 341 341 340 342 344 343 342 341 341 340 338 339 339 338 337 336 335 334 331 329 327 327 325 324 323 323 322 322 322 322 323 324 325 326 326 327 327 327 327 326 324 323 321 319 318
357 355 355 354 353 352 351 349 347 346 346 346 347 345 344 344 344 343 343 343 344 343 343 342 342 341 341 340 339 340 341 341 341 342 343 342 341 340 339 339 339 339 338 336 336 335 334 331 329 327 325 323 323 322 321 321 321 321 321 321 322 324 326 326 326 325 324 323 322 320 319 318 318 318
357 356 356 356 355 353 352 351 348 347 346 347 347 347 345 345 345 344 344 344 344 344 343 343 343 342 341 341 340 341 341 342 342 342 342 341 340 340 340 339 339 339 338 337 336 336 334 331 328 326 324 323 323 322 321 321 321 320 320 319 320 323 324 324 324 323 321 320 319 319 318 318 318 318
357 357 357 357 356 354 353 352 351 348 347 347 348 347 346 347 345 345 345 346 346 344 344 343 343 342 342 342 342 341 341 342 342 342 342 342 341 341 341 340 339 338 338 338 338 337 336 333 330 328 326 325 323 322 322 322 320 320 320 319 319 320 320 320 320 319 319 319 319 318 319 319 319 319
358 358 358 358 357 354 353 353 353 351 348 347 348 347 348 347 347 346 345 346 347 346 345 343 343 343 342 342 342 342 341 342 341 342 342 342 342 342 342 342 340 339 338 339 340 339 337 334 332 330 328 327 326 325 325 323 322 322 321 320 319 319 319 319 319 319 319 319 320 320 320 320 319 319
359 359 359 358 358 356 354 354 354 352 349 348 348 349 348 348 347 348 346 346 348 347 345 344 343 343 343 343 342 342 342 343 342 341 341 342 343 342 344 344 343 341 340 340 339 338 336 334 332 331 330 330 330 330 328 326 325 326 325 323 321 320 321 320 319 320 320 320 320 320 320 320 319 319
360 360 360 359 358 356 354 354 353 353 351 349 348 349 349 348 348 347 347 347 348 347 346 345 345 344 344 343 343 343 343 343 344 342 341 341 341 340 343 346 345 343 342 342 340 337 336 336 335 333 332 332 333 331 330 328 329 330 329 327 325 324 323 321 319 319 319 320 319 319 318 318 317 316
361 360 360 360 358 356 355 354 354 353 351 349 349 349 350 349 348 348 347 348 348 348 347 346 345 345 344 343 344 344 344 344 344 344 342 342 341 338 341 345 344 342 341 341 340 338 337 336 336 335 334 334 332 330 329 329 330 330 328 327 326 324 322 319 318 318 317 316 316 315 313 312 310 310
362 361 359 359 358 357 355 354 354 353 351 350 349 349 349 350 348 348 348 348 348 347 348 347 345 345 345 344 344 344 343 344 344 344 342 341 342 341 341 343 343 342 341 340 339 339 338 337 337 337 336 333 331 329 328 327 326 326 326 325 324 321 319 317 316 315 314 312 310 309 308 308 308 309
362 361 360 359 359 357 355 354 354 353 352 351 349 347 348 348 348 346 346 347 348 347 348 347 345 344 344 344 343 343 342 342 343 343 341 341 342 344 344 343 343 343 341 340 340 340 339 337 336 336 335 332 331 330 329 327 325 323 323 322 321 318 314 312 310 309 308 308 307 307 307 308 309 309
363 362 361 360 360 359 357 355 355 354 353 351 350 348 347 348 347 344 343 344 346 347 347 347 346 344 344 344 343 342 341 341 341 341 341 341 342 344 344 343 344 344 341 339 340 340 339 337 335 334 333 333 332 331 330 328 325 322 321 321 320 316 310 306 306 306 306 306 307 307 308 308 308 307
364 363 362 361 361 360 359 356 356 356 355 352 351 349 348 347 346 345 342 341 343 345 346 347 347 345 344 343 343 342 342 341 340 340 341 342 342 343 344 343 344 344 342 340 340 339 337 336 335 332 331 331 331 330 329 328 325 323 323 322 320 315 308 305 306 306 306 307 307 307 306 306 306 306
364 363 363 362 361 361 361 358 356 356 356 353 350 349 348 347 347 346 344 342 341 342 345 346 346 345 344 342 342 342 342 341 341 341 342 342 342 344 345 345 344 343 341 339 339 338 337 335 333 331 329 329 329 328 328 327 325 324 323 321 319 315 310 308 307 308 308 308 307 306 305 304 305 306
365 364 364 364 362 362 362 359 356 354 356 356 352 350 349 348 348 347 346 343 342 340 340 343 344 344 343 342 342 341 342 342 343 342 341 343 345 347 346 344 342 341 340 338 337 337 336 334 332 330 328 328 328 328 327 326 324 323 321 320 318 316 314 312 311 311 311 310 309 307 306 304 304 306
364 364 364 364 363 362 361 360 357 354 354 356 355 352 351 350 349 348 347 345 342 339 338 339 341 342 342 342 342 341 341 342 343 343 342 343 345 345 343 342 340 339 338 338 337 336 335 333 331 328 328 328 327 326 326 324 323 322 320 319 319 318 316 314 313 313 312 312 311 310 309 307 306 306
363 363 363 363 363 362 360 358 358 356 354 355 356 354 352 352 350 349 348 346 344 340 337 336 338 341 341 341 341 341 341 342 342 342 342 341 340 341 341 340 339 338 337 337 337 336 333 331 330 328 328 327 326 325 324 323 322 321 320 319 319 318 316 315 314 314 314 313 312 312 311 310 309 307
363 361 362 361 361 361 360 357 358 358 355 355 357 356 353 353 351 350 349 347 345 342 339 337 337 339 340 340 341 341 341 341 340 341 341 341 339 338 339 339 338 338 337 336 336 336 334 331 329 328 327 326 325 324 323 322 322 320 320 319 318 317 316 316 316 315 314 314 314 313 313 312 313 311
362 361 361 361 359 358 358 357 357 358 356 354 356 356 355 353 352 351 349 349 348 345 342 340 339 339 340 341 341 341 341 340 339 339 340 341 339 339 339 339 337 337 336 334 334 335 333 329 327 326 325 325 324 324 323 322 321 320 320 318 317 316 316 316 316 315 315 315 314 313 313 314 314 314
361 361 361 360 359 358 357 356 357 357 357 355 355 356 355 353 352 351 350 349 349 347 344 343 342 342 341 341 341 342 342 341 339 339 340 340 339 339 338 338 336 336 335 333 332 332 331 328 327 326 324 324 323 323 322 321 321 320 319 317 316 316 315 315 316 316 315 315 314 314 315 315 315 315
360 361 361 360 360 358 356 355 355 356 357 356 354 354 354 353 352 351 350 350 350 348 346 344 344 343 342 340 340 340 341 341 340 339 340 340 338 337 336 336 336 334 333 332 331 330 330 328 326 325 324 324 323 322 321 321 320 319 318 317 315 315 314 314 314 315 315 314 314 314 315 316 316 317
359 360 360 360 360 358 356 355 354 354 355 356 354 353 353 353 352 350 350 350 350 349 347 346 345 344 342 341 340 339 340 340 339 339 340 339 338 336 336 336 335 333 331 330 328 328 328 327 326 324 323 323 322 322 321 320 320 319 318 316 314 314 314 314 313 313 313 313 314 315 316 317 317 318
360 360 360 360 359 358 356 355 354 353 353 354 354 352 352 352 352 350 349 350 349 348 347 345 345 344 342 342 340 339 338 338 338 338 338 337 336 335 335 335 334 331 330 328 327 326 327 326 325 324 323 322 322 321 321 320 320 319 318 316 314 313 313 313 313 313 313 314 315 316 317 317 318 318
359 359 360 360 359 358 357 356 354 353 352 352 353 352 350 350 350 349 349 349 348 347 346 345 344 343 342 341 341 339 337 337 337 337 336 335 335 334 334 335 333 329 329 329 328 326 326 325 325 324 323 322 321 320 320 319 319 318 317 315 313 313 313 312 312 313 314 314 315 316 317 318 318 317
360 359 359 359 359 358 357 356 354 353 352 352 352 351 349 349 349 348 348 348 348 347 346 344 343 342 341 341 340 339 338 338 336 336 335 334 334 334 334 333 331 328 328 328 327 326 325 324 324 324 323 322 321 320 319 318 318 317 316 314 313 312 312 312 312 313 314 314 316 316 317 318 317 316
358 358 358 358 358 358 357 356 354 354 353 351 350 349 346 347 347 347 347 347 347 346 345 344 342 342 342 341 339 338 339 338 336 335 335 334 334 334 333 331 329 329 328 326 325 324 324 323 323 322 322 322 321 320 319 318 318 317 315 314 312 312 312 311 312 313 314 315 316 316 317 316 316 316
357 357 357 357 357 356 355 353 351 350 349 347 346 345 344 344 346 346 346 346 346 345 344 343 341 341 340 340 339 338 338 338 336 335 335 335 335 333 331 330 329 329 329 327 326 324 323 322 322 322 322 322 321 320 319 318 317 316 314 312 312 312 312 312 312 313 314 315 316 317 316 316 316 316
354 355 355 355 354 352 348 345 344 342 342 342 342 342 342 342 344 345 344 344 345 344 343 341 340 339 339 339 339 338 337 337 336 335 335 335 333 331 329 329 329 328 327 327 326 325 324 322 322 321 320 320 320 319 318 317 316 314 313 313 312 313 313 313 313 313 314 315 316 316 316 315 315 315
350 351 354 355 352 348 343 341 341 341 340 339 338 339 340 341 343 344 343 343 343 343 341 339 339 339 339 339 338 337 336 335 335 335 334 333 332 329 328 329 328 327 326 325 326 326 326 323 321 319 319 319 319 319 318 318 317 315 314 314 315 314 314 313 314 314 314 315 315 316 315 315 314 315
347 349 352 354 353 349 344 342 343 343 341 339 338 337 338 339 342 342 341 342 342 341 340 339 339 339 339 338 338 336 335 335 335 334 333 332 330 329 329 328 328 327 326 324 324 325 325 323 321 320 320 320 320 320 319 319 318 317 317 316 316 316 315 314 314 314 314 315 316 315 315 314 313 312
339 346 349 353 353 350 345 344 344 344 342 340 338 338 337 338 340 341 341 340 340 339 339 339 339 339 338 338 336 335 334 334 334 333 331 330 330 329 329 328 328 327 326 324 323 323 323 321 320 320 320 320 320 318 317 317 316 317 317 317 315 315 314 313 313 313 314 316 316 316 315 313 312 311
331 340 346 350 352 351 347 345 344 343 341 339 338 338 337 337 339 339 339 339 338 338 339 339 339 338 337 336 335 334 333 334 333 332 330 330 330 329 329 328 327 326 324 324 323 323 321 319 319 319 319 319 317 315 315 317 316 315 315 315 315 313 313 312 313 314 316 317 316 315 313 312 311 312
324 332 339 346 350 350 349 346 343 341 340 339 338 338 337 337 338 338 338 338 338 338 339 339 338 337 336 336 334 334 333 332 331 331 331 329 330 329 328 327 326 325 324 324 323 322 320 319 319 319 319 319 317 313 313 317 318 315 314 314 314 312 312 312 314 316 316 316 315 313 312 312 311 311
321 326 332 339 345 348 348 345 342 340 340 339 339 337 337 337 338 338 337 337 338 339 339 338 337 336 336 334 334 333 332 331 330 331 331 329 329 328 327 326 325 324 324 323 322 321 319 318 319 319 318 317 316 314 313 315 315 313 312 311 311 311 312 314 315 316 315 315 314 313 312 312 312 311
325 325 327 331 338 345 346 343 341 339 339 339 338 337 337 337 337 337 337 337 337 338 337 337 336 335 334 334 333 332 331 330 330 330 330 329 328 327 326 326 325 324 324 322 321 320 319 318 318 318 317 316 315 313 312 311 310 309 310 311 312 312 313 314 315 315 314 314 313 313 313 312 311 311
329 329 328 330 335 340 342 340 339 339 338 338 337 337 337 337 337 337 337 337 337 337 336 336 335 335 334 333 332 331 331 330 330 330 330 329 327 326 325 325 325 324 323 321 321 319 319 319 319 317 317 316 314 311 310 309 310 312 313 314 314 313 312 313 313 313 314 313 313 313 312 311 311 311
332 331 331 333 336 338 338 338 338 337 337 337 337 337 337 337 337 337 337 337 336 336 335 334 334 334 333 332 332 331 331 330 329 329 328 327 326 325 324 325 324 323 321 321 320 319 318 318 318 316 315 315 313 311 310 312 314 315 314 313 313 313 313 313 313 313 313 313 313 312 311 310 310 310
334 334 334 336 337 337 336 337 337 336 336 336 336 336 336 336 336 336 336 335 335 335 334 334 333 332 332 332 331 331 330 329 329 328 327 326 326 326 325 324 322 321 321 320 319 318 317 317 316 315 314 313 312 311 313 314 314 313 313 313 312 313 314 314 314 314 314 313 312 310 309 309 310 310
335 335 335 335 335 335 335 335 335 335 335 335 336 336 336 335 335 336 335 335 335 334 333 333 332 332 331 331 330 330 329 328 327 327 326 325 325 325 324 322 322 321 321 319 318 317 317 316 314 313 313 312 312 313 314 314 313 312 312 312 312 313 314 315 315 315 314 313 311 309 309 309 310 309
336 335 334 334 334 334 335 335 335 335 335 335 335 335 335 335 335 335 334 334 334 333 332 332 332 331 330 329 329 329 328 327 327 327 326 325 325 324 322 321 320 320 319 318 317 317 316 314 313 313 312 312 312 313 313 313 312 312 312 312 313 314 315 314 314 313 313 312 310 308 308 309 309 308
Wind_Speed
16 16 16 15 13 12 12 12 11 10 9 8 7 8 8 7 5 4 4 5 8 11 12 11 12 13 12 12 12 12 13 13 14 13 12 11 12 13 13 13 14 14 16 18 17 17 17 17 16 16 16 17 17 17 17 18 18 18 18 18 18 18 18 19 18 18 17 16 15 15 14 14 14 15
16 16 16 16 15 14 13 13 12 11 10 10 9 9 9 9 8 6 4 5 7 8 9 9 12 15 13 11 11 11 12 13 14 13 11 11 12 13 14 14 14 13 14 16 17 17 17 18 18 17 17 17 17 18 18 19 19 19 18 18 18 18 18 18 19 19 19 18 17 16 16 15 15 15
17 17 17 16 16 15 14 14 13 12 12 12 11 11 11 11 11 9 6 4 6 7 7 7 9 14 12 10 10 10 11 13 14 12 11 11 13 14 15 15 14 12 11 13 14 15 16 17 17 16 16 16 17 18 18 18 18 18 18 18 18 18 18 18 18 18 19 19 19 18 18 18 18 17
18 18 18 17 17 15 14 14 14 14 14 14 13 13 13 12 12 11 9 7 6 8 9 7 6 9 9 9 10 10 9 11 13 11 10 12 13 13 13 14 13 11 11 12 13 14 15 15 15 15 16 16 17 17 17 17 17 17 18 18 19 19 19 18 17 17 18 18 19 19 19 19 19 19
19 19 19 18 18 17 16 15 15 14 15 15 15 14 14 14 14 13 12 9 8 8 9 8 7 7 9 10 10 10 10 10 11 11 11 12 12 11 11 12 12 12 12 11 12 13 14 14 15 16 16 16 16 15 15 15 16 17 18 19 19 19 19 18 17 17 17 17 18 19 19 20 19 19
21 20 20 20 19 18 18 17 16 15 15 16 16 16 16 16 15 15 14 12 10 10 10 10 9 8 9 10 10 11 12 11 11 11 11 12 12 11 10 10 11 12 12 12 11 11 12 13 15 15 15 15 14 14 14 15 16 17 17 18 18 18 18 18 18 18 17 17 17 18 18 19 19 19
23 21 21 21 21 20 20 19 18 17 17 17 17 17 17 16 16 16 16 14 12 11 11 11 11 11 11 11 11 12 13 12 11 12 11 11 11 11 11 10 10 10 11 10 11 11 12 13 13 14 14 13 13 13 13 14 15 16 16 17 17 17 17 18 18 18 18 17 18 18 18 18 18 18
24 23 23 22 22 22 21 21 20 19 18 18 18 18 17 17 16 16 17 16 14 11 11 12 12 12 12 13 13 13 13 13 12 12 12 12 12 11 11 10 9 10 10 10 11 13 14 14 13 13 13 12 12 12 13 14 14 15 16 17 17 17 17 17 17 18 18 18 18 17 17 16 16 17
25 25 24 23 24 23 23 22 21 21 20 19 18 18 18 18 17 16 17 17 16 13 12 12 12 12 13 13 14 14 14 13 13 13 12 12 12 12 12 11 10 12 13 13 13 13 13 14 13 13 12 12 12 12 12 13 14 16 16 16 17 17 17 17 18 18 18 17 17 16 16 16 17 18
26 26 26 25 25 25 25 23 23 22 22 21 20 19 19 18 18 17 17 17 17 16 14 13 13 14 13 13 14 15 15 14 13 13 13 13 13 13 13 12 11 12 13 13 13 12 12 12 12 12 12 12 12 12 12 13 14 15 15 14 15 15 16 16 16 16 15 15 16 16 17 18 19 19
27 27 27 27 27 27 27 25 24 23 22 22 21 21 20 19 18 18 18 17 17 17 16 15 15 15 15 15 14 14 15 15 14 13 13 13 14 14 14 14 12 11 11 12 12 12 11 11 12 13 13 13 13 12 11 12 13 13 12 12 13 13 13 14 15 15 16 16 18 19 20 20 20 20
27 27 28 28 28 28 28 27 25 24 23 22 22 21 21 20 20 19 18 18 18 17 17 16 16 15 16 16 16 15 15 16 16 15 14 14 14 14 14 14 12 11 10 10 12 12 13 13 15 15 14 12 12 11 11 13 13 11 10 10 11 11 12 14 16 17 18 19 20 20 20 20 21 21
27 27 28 28 29 29 30 30 28 26 24 23 22 22 22 22 21 20 19 18 19 18 17 17 16 16 17 17 17 17 17 18 17 16 15 14 14 14 13 14 14 12 10 10 11 11 12 14 14 15 13 11 10 10 12 13 12 12 13 13 12 12 15 17 18 18 19 19 20 21 21 22 23 24
28 28 28 28 29 30 31 32 32 30 28 26 24 23 24 24 23 21 20 19 19 18 18 17 17 17 17 17 18 18 18 18 17 16 16 15 15 14 13 12 13 15 13 11 11 11 11 12 12 12 12 10 8 9 11 12 12 13 13 13 13 16 19 20 19 20 20 21 22 23 23 23 23 23
28 28 28 28 29 31 33 34 34 34 32 30 28 26 25 26 25 23 22 21 20 20 19 18 18 18 17 17 18 19 18 18 17 16 16 15 15 14 14 12 11 14 15 12 10 11 11 10 11 10 11 12 13 13 12 13 15 15 14 14 16 19 20 20 21 22 22 22 22 21 20 19 19 19
27 27 28 27 27 30 33 35 35 35 35 34 33 31 29 29 29 27 25 23 22 21 20 19 18 19 18 18 18 19 18 17 17 17 16 16 15 14 14 13 10 13 16 13 10 11 11 9 10 11 12 15 15 14 13 15 16 16 15 16 17 18 19 20 21 21 20 19 18 17 17 17 18 19
28 27 27 27 26 27 31 34 34 35 37 37 35 35 34 32 32 32 30 27 25 22 20 20 20 19 18 18 19 20 19 17 17 17 16 16 16 15 14 13 10 11 14 14 11 11 11 10 11 12 14 15 14 13 13 15 15 14 14 14 15 16 17 17 16 15 15 15 15 16 17 19 20 22
29 29 28 27 27 26 28 33 33 31 35 38 38 37 37 35 34 34 34 33 30 27 23 21 20 20 20 19 19 19 19 18 17 17 17 16 16 16 14 12 9 10 12 12 10 11 11 11 12 14 14 14 13 13 14 15 15 14 14 14 14 15 14 13 13 13 13 14 16 17 19 20 21 22
29 30 29 28 27 26 27 32 34 31 30 35 39 39 36 34 32 33 36 36 34 32 29 24 22 21 22 22 20 19 18 19 18 16 15 16 14 13 11 9 9 10 11 12 11 10 11 11 12 15 14 12 13 13 14 14 14 13 14 14 14 15 14 12 12 12 13 15 16 18 19 20 21 21
29 29 30 29 28 28 28 31 36 36 31 30 34 36 33 32 31 31 34 37 36 35 33 29 25 22 21 21 22 22 20 19 18 15 14 14 12 11 11 11 11 11 12 14 14 11 10 10 12 14 14 13 13 12 11 13 14 13 13 13 15 16 15 13 12 13 14 16 17 17 17 18 19 20
31 30 30 29 29 30 31 32 36 39 36 30 30 31 30 29 29 29 30 33 36 37 36 34 31 27 24 23 21 22 23 21 18 17 16 16 15 14 13 13 14 13 13 15 16 13 11 11 12 13 13 12 12 11 11 13 13 11 11 14 17 17 14 12 13 14 16 17 18 17 16 16 17 19
32 32 33 33 32 32 33 35 37 40 40 34 30 30 29 28 28 28 26 27 32 35 36 36 34 31 29 27 23 22 25 25 22 19 18 17 16 15 14 13 13 13 13 15 17 14 13 12 10 10 10 10 11 11 10 10 9 9 12 15 16 14 12 12 14 16 18 18 17 16 16 16 16 17
32 33 35 37 38 37 35 36 38 41 43 39 33 32 30 29 29 29 27 26 28 31 35 36 36 34 32 30 27 23 24 27 26 22 19 17 16 15 14 13 11 10 11 15 19 16 11 9 8 7 8 8 8 8 8 8 8 10 12 13 13 13 13 14 15 16 18 18 17 17 17 17 16 16
31 34 37 39 43 43 39 37 38 41 45 43 35 32 31 31 31 29 28 28 27 29 34 34 33 33 30 27 26 24 24 27 28 24 21 20 18 16 14 14 14 11 10 13 19 16 10 7 7 7 7 6 6 7 8 9 10 10 11 12 13 13 13 13 14 15 17 18 18 18 18 18 16 15
32 34 37 38 42 44 43 43 42 42 45 45 38 34 34 34 31 29 29 29 28 29 32 30 27 26 26 26 26 26 25 26 26 24 23 21 19 18 16 15 15 14 12 13 18 15 10 8 7 6 6 7 8 9 10 10 11 12 12 12 12 12 12 12 13 14 16 17 17 17 17 16 15 16
34 34 33 34 37 42 45 47 46 43 44 46 44 40 36 35 32 31 29 28 27 28 29 27 25 25 25 26 28 28 25 24 23 23 23 22 20 19 17 16 14 13 11 13 16 13 10 9 8 6 6 7 8 10 10 11 11 11 11 11 11 12 12 12 13 14 14 15 16 17 17 17 18 20
33 33 33 33 34 37 42 47 49 48 47 48 49 46 40 35 34 34 32 29 27 27 27 26 26 26 26 26 27 27 26 24 24 23 23 22 21 19 18 17 15 12 9 12 13 11 10 9 7 7 6 7 8 9 10 11 11 10 11 12 12 12 12 12 13 13 14 15 16 17 18 19 20 21
33 31 33 34 34 35 38 43 49 52 51 50 50 49 44 38 37 36 33 32 30 28 27 27 26 26 27 27 26 27 27 25 24 23 21 21 21 19 18 18 16 13 11 10 11 11 10 9 7 7 7 7 8 9 10 10 11 12 12 13 12 12 12 12 13 14 15 15 15 16 16 17 17 18
37 36 34 34 35 36 38 40 45 52 54 52 50 49 45 41 40 38 34 32 32 29 27 27 27 26 27 28 28 28 26 23 23 21 19 21 21 18 18 18 15 13 12 11 11 11 10 9 7 7 7 8 10 10 10 11 13 13 13 13 13 13 13 13 14 15 14 15 15 16 17 16 16 18
44 43 40 37 34 33 35 39 44 49 52 52 51 50 47 44 43 42 38 34 33 31 28 28 28 28 28 28 27 25 23 21 22 22 20 21 20 20 20 19 15 14 14 12 12 11 10 9 8 8 8 9 10 11 11 12 13 14 14 14 13 13 13 12 13 14 15 16 16 16 16 17 18 20
49 47 45 43 39 34 34 39 44 47 50 52 52 51 51 47 43 42 41 37 34 32 30 29 28 26 25 26 25 23 22 20 21 22 21 20 21 22 22 19 16 15 15 13 12 12 11 10 10 11 11 11 12 12 11 12 14 15 15 14 14 13 13 13 14 15 15 16 16 16 18 19 20 21
54 49 46 45 42 38 36 39 44 46 48 51 51 52 53 48 40 37 37 34 32 32 31 30 29 26 24 26 26 23 22 20 21 23 23 21 22 23 21 18 17 17 16 15 15 14 13 14 14 12 12 13 12 12 12 13 15 15 15 15 14 14 14 14 14 14 14 15 16 18 19 20 21 21
52 47 42 40 38 37 36 39 42 44 45 47 49 51 52 46 37 36 37 34 32 34 33 30 30 27 24 25 26 24 23 22 22 25 26 24 22 21 19 18 18 17 15 16 17 17 17 17 15 12 12 13 13 13 13 15 16 16 15 14 13 13 13 13 13 14 14 15 17 19 20 20 20 21
44 41 40 38 38 38 38 39 40 42 44 44 45 47 49 44 37 36 39 37 34 35 34 31 30 28 24 25 26 25 24 24 23 25 27 25 20 18 20 19 17 16 15 13 14 17 18 17 15 13 12 12 15 17 18 19 18 15 14 13 12 12 13 12 13 14 15 15 17 19 20 20 20 20
38 38 38 38 40 42 42 42 43 43 42 42 42 42 43 43 40 37 38 38 37 38 37 35 34 33 29 27 28 27 25 24 24 24 26 24 20 19 21 19 16 16 15 12 10 13 18 19 17 15 13 12 15 19 23 25 22 17 13 12 12 11 12 12 13 14 15 16 17 18 19 20 20 19
38 41 39 38 40 41 40 41 43 41 38 38 39 38 38 39 40 38 38 39 39 38 36 34 33 34 32 29 29 28 24 22 23 24 25 24 21 21 21 18 16 16 14 12 12 14 16 17 15 13 12 12 11 12 15 19 22 19 13 10 10 10 11 12 13 15 15 16 16 16 18 20 21 21
38 42 40 39 42 42 39 40 39 36 33 36 39 40 40 41 41 40 40 41 38 35 33 30 29 31 30 29 29 29 25 22 22 23 25 24 22 21 21 18 16 15 13 12 14 15 15 14 12 12 12 10 8 7 7 9 16 20 15 10 9 10 11 12 14 15 15 15 15 16 18 20 22 22
33 36 38 39 42 43 41 40 36 33 35 38 40 39 39 39 39 38 39 39 36 33 32 31 30 30 29 28 27 25 23 23 21 21 24 24 22 21 21 19 16 15 13 13 14 14 12 11 11 13 13 10 7 7 6 4 10 17 18 13 11 11 12 12 13 14 14 14 15 17 19 20 22 23
26 30 34 37 39 38 37 36 37 39 42 43 42 38 36 36 36 38 40 38 36 35 35 34 34 34 32 30 27 24 23 24 23 21 22 24 23 22 22 20 17 16 15 15 16 14 12 12 12 14 15 14 11 9 7 6 7 9 12 14 16 16 14 13 13 14 15 15 16 19 20 21 22 22
24 27 31 34 36 35 32 32 36 39 42 42 41 40 40 38 37 38 40 39 37 37 37 35 35 35 33 31 29 26 23 25 26 24 23 24 25 24 20 17 16 17 16 16 16 14 13 14 15 16 16 15 12 8 8 9 11 13 14 16 16 15 14 14 14 14 15 16 17 19 20 20 21 20
22 24 27 28 28 27 26 30 35 37 37 35 34 36 38 40 40 38 39 39 38 37 36 35 34 34 32 30 29 27 25 24 25 25 24 24 23 21 19 17 17 18 17 15 14 13 11 12 15 18 17 13 9 7 9 11 12 13 13 12 11 12 14 15 15 15 16 16 16 18 19 20 20 19
20 22 23 21 18 15 13 16 25 30 31 30 33 36 38 40 40 39 38 37 35 33 33 32 32 32 31 29 29 28 26 24 24 24 24 22 20 20 20 20 19 18 17 14 12 11 10 9 11 13 13 12 11 10 12 12 11 10 10 10 11 12 12 13 14 17 18 17 16 17 18 18 16 16
12 14 13 10 10 8 8 14 23 32 35 34 35 38 40 40 39 38 37 35 32 31 32 31 30 30 29 29 28 27 23 22 24 24 21 19 20 23 23 22 19 17 14 13 11 11 10 10 9 9 10 12 14 14 15 14 12 11 11 11 11 10 10 12 16 18 17 16 16 17 18 16 13 13
7 2 5 8 9 10 11 11 13 20 28 29 28 29 34 36 37 37 37 36 33 32 32 31 29 28 27 26 27 25 22 21 24 24 22 23 24 21 19 18 18 16 13 12 12 12 12 10 9 10 12 14 15 16 15 14 12 11 11 11 11 11 12 13 14 13 13 14 16 17 15 13 11 11
11 8 12 17 19 19 18 17 16 17 22 25 27 29 32 33 33 33 33 32 30 28 28 27 26 25 23 24 26 25 22 21 23 26 26 26 23 15 10 12 14 14 14 14 13 12 12 11 11 12 14 14 15 15 14 13 12 12 12 12 12 12 11 11 11 11 13 14 15 14 12 9 8 8
Wind_Direction
222 222 219 218 223 222 216 219 217 213 216 210 205 205 208 219 224 221 212 206 214 208 199 205 204 196 199 206 215 220 217 224 234 235 233 235 243 250 252 258 262 258 251 249 250 250 250 253 257 262 269 275 280 284 288 291 293 294 294 294 293 293 293 292 291 290 290 292 293 294 294 294 295 295
223 223 221 217 219 221 217 217 216 213 208 205 205 203 205 211 220 240 235 211 225 214 200 208 197 188 195 206 214 218 217 227 230 226 232 236 237 243 247 255 264 262 252 248 249 251 252 254 258 263 269 274 279 283 287 290 292 293 293 293 292 292 291 290 288 288 288 289 291 292 293 292 293 293
222 223 223 218 217 218 217 216 216 213 207 204 205 203 204 208 212 228 241 226 224 220 221 226 188 177 190 205 213 215 216 228 230 224 230 235 236 242 247 252 258 259 254 250 250 251 253 257 260 264 269 274 279 283 286 288 290 292 293 294 294 294 294 292 288 287 286 287 289 290 291 292 292 292
220 222 222 220 217 216 216 216 216 213 207 205 207 205 203 206 208 212 223 233 231 220 225 232 192 177 191 203 214 216 211 223 230 223 223 232 238 241 246 253 256 257 259 258 256 256 258 261 264 267 271 274 277 280 283 287 291 294 295 296 297 297 297 295 291 287 286 287 289 291 292 294 296 297
218 218 219 220 218 214 214 215 216 214 209 205 207 207 203 205 206 206 211 224 232 221 218 224 220 209 205 205 214 218 211 217 227 225 222 228 235 236 241 249 252 254 258 258 258 260 260 263 265 267 269 271 274 278 284 289 292 294 296 297 298 298 297 296 294 290 289 289 289 291 294 296 299 302
217 216 216 218 218 214 214 215 215 216 212 207 207 207 206 206 205 204 206 215 227 227 219 219 227 228 217 212 214 216 217 218 219 223 223 223 229 233 236 243 249 251 248 247 256 263 265 265 263 263 265 268 273 279 285 290 293 294 296 296 296 296 294 293 294 293 292 291 290 292 294 297 300 302
215 215 214 215 215 213 213 214 215 217 215 212 210 209 208 208 207 204 205 210 219 228 226 220 223 225 219 219 221 216 218 222 219 221 222 222 226 230 231 237 248 248 239 242 258 268 271 269 264 263 265 269 275 282 287 290 292 292 292 293 293 292 291 290 290 291 292 292 292 293 295 297 298 300
212 213 213 213 213 212 212 212 213 215 215 214 212 211 210 209 209 205 204 209 214 223 229 225 223 221 216 220 225 220 216 219 221 222 223 224 226 228 230 233 241 247 248 255 268 274 274 268 263 262 266 271 277 284 287 290 292 293 292 292 292 291 289 288 287 288 290 291 292 292 293 293 294 295
211 212 213 212 211 211 211 211 212 213 214 213 212 212 210 209 209 208 205 207 210 216 226 227 222 221 220 219 221 219 216 215 219 223 225 227 228 228 232 234 236 243 251 257 264 269 269 264 261 262 264 270 276 279 283 289 293 294 293 290 290 290 289 288 287 286 286 287 287 287 287 288 290 291
211 211 212 211 211 211 211 210 211 211 211 212 212 212 211 208 208 208 207 206 207 212 220 225 222 221 222 222 220 218 216 214 215 218 224 229 229 228 232 235 235 236 244 250 251 255 263 261 256 257 261 269 274 275 281 289 293 293 292 287 285 287 287 287 288 286 283 281 280 281 283 285 286 287
212 211 211 211 211 212 212 211 210 209 209 211 212 211 209 208 207 207 207 206 206 209 213 219 222 221 221 222 225 221 216 218 219 218 219 225 227 228 229 232 231 229 233 237 236 241 254 257 255 259 263 268 271 273 282 294 299 297 292 283 279 281 284 286 285 283 280 279 279 281 282 282 283 284
214 213 213 213 212 212 212 212 210 209 207 208 210 210 208 207 206 206 207 207 208 208 210 214 218 221 222 222 225 223 216 217 221 219 219 222 224 226 227 228 230 228 226 227 229 232 237 243 252 258 261 267 270 272 285 298 302 299 290 278 272 274 283 287 284 281 279 278 279 280 281 282 283 283
216 216 216 216 215 214 213 212 211 210 208 207 207 207 205 205 206 207 207 207 208 209 211 213 214 219 224 222 221 221 216 215 218 218 218 223 225 225 227 225 224 226 227 233 238 235 229 233 241 245 252 266 270 272 289 299 296 289 279 267 263 274 287 289 285 281 279 279 279 281 282 284 284 284
218 219 220 220 218 217 215 213 213 213 212 209 208 207 205 203 203 205 207 208 209 210 212 214 213 216 222 222 220 220 218 216 218 216 214 221 226 225 227 225 221 223 227 232 240 237 229 233 238 238 241 249 255 266 281 283 274 273 271 262 267 283 290 289 284 281 281 282 283 284 285 286 287 287
220 220 221 222 221 219 217 215 216 217 216 213 211 210 208 206 204 203 206 209 210 212 214 216 216 217 220 222 223 225 223 217 216 217 216 219 224 222 223 224 220 219 219 224 236 234 226 230 238 241 243 251 260 266 267 269 271 274 275 273 278 286 287 284 283 283 284 285 286 287 288 289 290 291
220 220 221 222 221 219 217 216 218 220 219 217 215 214 212 210 209 208 209 211 212 213 215 217 219 220 221 221 223 228 229 221 216 218 218 219 221 220 221 224 221 216 215 218 230 232 227 229 239 251 261 265 269 265 260 269 276 275 273 276 281 287 287 284 283 282 283 285 286 288 291 292 292 292
219 218 219 220 219 218 216 214 215 219 221 219 218 218 216 215 215 216 216 216 215 215 217 219 221 221 221 221 223 226 228 226 221 219 218 218 219 221 227 231 226 216 213 214 224 235 236 234 243 261 272 270 266 260 259 273 280 277 277 282 287 294 293 286 283 282 282 285 287 289 290 290 289 290
218 217 216 217 217 216 214 211 209 213 217 218 217 217 217 217 218 220 221 220 219 218 219 222 224 224 224 225 226 225 224 225 225 221 215 216 220 224 231 232 220 209 211 214 224 238 238 233 244 263 274 273 268 265 267 275 280 279 282 284 288 296 295 285 281 283 284 286 287 287 286 286 286 287
217 217 216 216 215 213 210 209 209 208 208 213 215 214 214 216 217 220 222 222 221 220 221 223 224 225 228 229 229 227 222 222 225 222 218 220 223 221 216 212 207 209 215 218 221 235 242 239 248 263 275 282 278 271 270 275 277 279 279 278 282 294 299 292 287 289 291 293 293 291 288 285 284 286
219 217 215 214 214 211 209 210 213 212 205 203 207 209 210 213 216 220 223 224 223 221 221 223 224 224 228 229 229 227 222 218 217 217 218 217 212 206 205 210 217 219 220 220 219 232 246 244 253 270 282 283 275 269 271 278 279 277 272 273 283 293 297 295 295 297 298 300 303 301 296 290 287 286
224 222 218 215 213 211 210 211 215 215 208 199 197 201 205 208 215 221 223 224 226 224 222 221 223 225 227 229 231 226 220 214 208 207 212 211 206 209 216 224 228 225 222 220 217 228 247 251 261 276 279 272 268 269 276 279 277 270 269 278 286 290 291 292 296 299 300 303 306 306 305 304 298 292
228 228 225 220 217 215 215 214 215 214 209 202 196 197 199 203 211 215 216 218 222 224 225 224 223 223 225 228 232 227 219 214 208 205 210 213 213 218 222 229 235 233 228 219 211 219 244 256 264 272 268 263 265 267 272 276 274 273 278 283 285 285 286 290 294 297 299 302 304 305 309 312 308 300
226 229 230 226 221 220 219 217 215 214 211 205 200 198 198 202 208 210 210 211 212 214 219 222 222 222 224 226 228 227 220 216 213 211 212 216 221 224 225 227 230 234 235 219 205 209 235 247 244 247 253 261 265 265 270 276 275 275 277 279 282 285 287 286 289 294 297 298 301 303 306 308 305 299
225 227 230 230 225 222 219 219 218 217 213 210 205 202 203 206 208 206 207 210 210 207 210 213 215 217 219 219 220 220 219 216 215 215 214 218 223 225 226 226 222 231 244 216 196 197 217 231 227 232 246 264 273 274 278 280 278 277 277 278 280 283 286 285 284 289 294 296 296 296 296 297 293 286
231 228 227 229 229 224 218 219 221 219 217 214 211 209 210 210 208 203 204 208 209 205 202 200 200 204 210 213 214 215 216 214 214 214 213 217 220 219 221 222 222 235 245 212 191 190 199 214 226 232 242 260 270 275 281 283 281 280 278 278 278 280 285 285 280 282 288 291 293 292 291 290 283 275
236 236 231 230 231 226 220 219 220 221 219 216 214 215 214 211 206 202 202 205 202 195 190 189 192 197 203 210 213 213 211 208 211 214 213 213 214 215 218 220 224 237 233 198 186 187 189 200 219 228 238 257 269 277 285 284 282 281 278 278 281 282 284 283 281 282 286 289 292 292 290 286 280 277
237 239 239 236 234 230 223 220 220 222 220 216 216 216 214 210 205 201 201 203 197 185 180 184 191 195 200 206 211 212 211 208 207 209 209 209 209 210 215 220 226 230 210 183 180 181 181 191 208 219 234 258 269 274 280 281 283 285 284 284 286 286 286 288 289 290 290 288 288 287 285 284 283 283
241 242 242 240 238 233 227 223 223 224 222 219 217 216 213 209 203 199 199 201 195 184 180 185 189 194 199 204 205 209 214 214 206 200 202 208 208 208 213 218 219 217 206 192 185 179 179 190 206 218 230 245 258 266 272 279 285 287 286 286 287 288 291 293 292 291 289 286 285 285 285 286 289 289
242 244 244 245 244 238 230 226 224 224 224 223 220 216 213 209 204 199 198 197 192 187 185 185 186 190 196 199 201 205 211 210 197 187 194 205 205 204 210 212 209 207 204 196 185 182 186 196 207 225 235 239 251 262 270 277 281 282 283 285 288 289 291 292 291 289 288 286 286 286 286 286 288 290
238 241 243 247 251 245 234 226 223 223 224 224 222 218 214 209 205 200 196 193 190 189 187 184 185 190 194 197 200 200 197 191 183 182 193 203 201 201 204 203 201 205 205 198 191 190 192 197 207 228 243 248 254 261 267 274 277 278 279 281 284 287 288 289 289 288 287 287 286 285 286 288 289 289
236 237 238 241 247 248 240 230 225 223 223 220 218 216 213 210 207 203 197 193 190 188 186 185 186 188 191 196 198 192 184 181 182 188 198 201 199 201 201 193 193 203 203 198 197 197 200 211 221 227 235 244 252 257 264 270 272 273 275 276 278 282 284 286 286 284 285 287 288 288 289 290 291 290
237 237 237 237 240 242 237 227 220 217 216 215 214 211 209 209 209 205 198 193 189 186 185 183 183 186 191 193 190 184 180 181 186 192 197 200 201 203 199 190 194 201 197 194 200 205 209 213 214 216 224 233 242 253 263 267 265 265 268 271 273 275 279 281 283 285 289 291 291 290 290 290 291 291
238 236 236 234 233 232 224 215 210 208 207 208 209 209 207 207 206 201 195 189 185 183 180 177 180 187 191 187 182 179 179 182 189 193 196 202 205 201 195 197 200 197 195 200 202 201 205 210 214 223 232 235 238 245 255 261 261 259 261 266 269 272 274 278 282 287 292 293 290 289 290 291 291 291
240 235 234 230 227 223 216 210 207 205 201 199 201 204 204 204 202 198 193 188 181 177 175 175 181 187 187 181 180 181 181 183 188 193 196 203 206 196 193 201 202 194 200 212 201 188 192 204 215 227 233 236 240 243 246 250 251 251 254 259 264 268 271 277 283 288 290 290 290 291 292 293 294 295
242 236 233 229 224 220 215 212 210 207 200 196 196 197 198 199 199 195 191 186 179 174 175 179 184 185 183 179 179 182 183 182 183 185 190 197 203 199 198 203 201 196 204 214 204 191 192 197 206 220 232 244 249 246 245 243 240 238 246 254 258 265 272 278 284 289 289 288 288 289 291 295 299 300
243 237 235 232 228 223 218 214 212 207 200 196 194 191 191 193 195 193 189 184 179 176 177 180 181 180 177 175 176 180 184 183 179 179 183 191 199 204 206 205 201 202 207 210 212 214 209 206 213 231 245 255 257 254 251 243 232 227 236 253 258 263 274 282 284 286 286 285 285 289 293 298 301 302
244 240 236 233 231 229 224 217 212 205 197 194 194 192 190 190 190 189 185 181 177 175 176 179 177 174 172 170 173 178 184 184 179 175 180 190 200 205 208 207 205 208 211 211 217 223 220 216 224 237 244 251 259 264 262 233 211 211 221 247 269 270 275 283 283 281 281 283 286 292 298 300 301 302
247 246 243 239 234 231 225 217 207 197 192 193 194 193 190 187 186 182 176 174 172 171 173 175 173 171 171 170 171 176 180 181 180 177 180 191 201 204 205 209 211 211 213 219 227 230 226 222 225 231 237 245 255 264 266 226 200 206 212 226 255 270 273 276 277 279 284 288 292 296 299 299 299 301
254 252 252 250 246 240 231 216 203 194 191 191 191 188 183 179 176 171 168 169 170 169 171 173 171 171 174 175 175 177 176 177 184 189 188 191 198 203 205 210 213 211 212 220 225 224 223 225 224 227 236 242 247 262 277 277 263 248 237 241 255 262 261 263 271 281 287 291 295 298 299 298 299 301
265 261 259 257 256 252 238 218 203 196 192 189 186 181 175 171 168 166 167 169 169 168 171 174 172 172 174 174 175 178 177 178 188 198 197 195 199 203 205 209 215 216 218 222 221 217 216 221 223 226 233 238 245 266 284 283 279 275 266 261 261 257 252 256 264 275 284 291 295 298 300 302 305 308
276 273 270 264 262 258 240 215 201 193 187 183 177 173 169 166 165 166 166 166 166 167 169 171 172 172 173 172 172 177 181 185 191 200 204 202 200 199 201 206 214 221 225 226 222 218 217 220 221 222 223 226 240 266 273 268 264 262 261 265 268 266 265 263 260 265 276 285 291 295 300 304 307 309
285 280 273 260 253 258 249 213 189 175 169 168 167 167 166 164 162 162 162 162 164 166 166 167 168 170 171 171 172 177 184 189 192 200 208 205 192 188 199 210 216 221 223 221 219 220 216 208 206 207 211 220 236 251 255 253 255 261 268 275 277 276 273 268 265 269 274 279 284 291 298 303 306 309
303 290 279 251 225 209 180 167 166 164 164 168 170 168 163 158 155 156 157 158 161 165 166 167 169 169 170 172 175 180 186 190 191 199 209 209 196 189 194 203 210 214 214 214 218 221 211 194 186 195 214 226 233 239 245 251 258 265 269 273 280 286 283 276 274 275 273 275 282 288 289 290 293 302
13 45 96 91 80 81 97 116 142 155 158 159 157 151 146 145 147 153 156 159 163 166 167 168 169 170 170 172 178 186 191 189 190 196 206 213 212 203 187 182 190 199 207 214 218 217 211 205 204 213 223 228 230 233 241 251 259 264 271 277 283 285 283 280 281 279 274 278 290 294 290 282 277 287
28 70 100 102 99 98 99 101 104 116 129 136 137 137 139 142 146 150 154 157 160 163 164 166 167 168 169 169 175 186 192 190 193 200 206 210 213 205 173 165 180 195 209 217 215 209 209 215 220 220 224 231 236 238 243 252 257 263 272 276 273 274 279 285 289 288 286 291 298 300 294 282 275 297